Location: Rumah Dana
(3.1167°N, 113.0167°E)
Time: 04:23:27
(UTC+00:00)

OAO 3 Rocket - Pass Details

Date: 20 January 2026
Orbit: 613 x 660 km, 35.0° (Epoch: 11 February)

Event Time Altitude Azimuth Distance (km) Brightness Sun altitude
Rises 11:26:43 0° 304° (NW) 2,970 7.1 -12.3°
Reaches altitude 10° 11:29:05 10° 302° (WNW) 2,059 6.3 -12.8°
Maximum altitude 11:33:54 75° 217° (SW) 678 3.3 -14.0°
Drops below altitude 10° 11:38:40 10° 132° (SE) 2,046 5.4 -15.1°
Enters shadow 11:40:08 - 131° (SE) 2,606 6.0 -15.4°
